Flag for U.S.A. Weather past 2 weeks in Vevay, Indiana, U.S.A.

Now
70 °F

Overcast.


Feels Like: 74 °F
Forecast: 59 / 83 °F
Wind: No wind

Location: Cincinnati / Northern Kentucky International Airport

Current Time: Jul 30, 2014 at 10:39:28 PM

Latest Report: Jul 30, 2014 at 9:52 PM


Visibility: 10 mi

Pressure: 30.04 "Hg

Humidity: 68%

Dew point: 59 °F

Location of VevayLocation

Historic Weather in Vevay — Graph

°F

Vevay temperature yesterday

Maximum temperature yesterday: 73 °F (at 5:52 PM)
Minimum temperature yesterday: 50 °F (at 6:52 AM)
Average temperature yesterday: 63 °F

Past Weeks' High & Low Weather Summary

 TemperatureHumidityPressure
High87 °F (Jul 21, 3:52 PM)94% (Jul 20, 4:59 AM)30.16 "Hg (Jul 20, 4:59 AM)
Low50 °F (Jul 29, 6:52 AM)34% (Jul 17, 3:52 PM)29.68 "Hg (Jul 27, 5:52 PM)
Average70 °F71%30.01 "Hg
* Reported Jul 15 8:52 PM — Jul 30 8:52 PM, Vevay, Weather by CustomWeather, © 2014

Note: Actual official high and low records may vary slightly from our data, if they occured in-between our weather recording intervals... More about our weather records

Advertising

Vevay weather history for previous 24 hours

 ConditionsComfort  
Time TempWeatherWind HumidityBarometerVisibility
8:52 PM
Jul 30
71 °FBroken clouds.No wind68%30.03 "Hg10 mi
7:52 PM73 °FPartly sunny.13 mph62%30.03 "Hg10 mi
6:52 PM77 °FScattered clouds.14 mph52%30.02 "Hg10 mi
5:52 PM78 °FBroken clouds.10 mph52%30.02 "Hg10 mi
4:52 PM77 °FBroken clouds.12 mph48%30.02 "Hg10 mi
3:52 PM78 °FScattered clouds.10 mph48%30.01 "Hg10 mi
2:52 PM78 °FScattered clouds.10 mph48%30.03 "Hg10 mi
1:52 PM78 °FBroken clouds.12 mph52%30.03 "Hg10 mi
12:52 PM77 °FBroken clouds.13 mph54%30.05 "Hg10 mi
11:52 AM74 °FScattered clouds.10 mph64%30.06 "Hg10 mi
10:52 AM73 °FScattered clouds.8 mph64%30.06 "Hg10 mi
9:52 AM69 °FScattered clouds.7 mph73%30.06 "Hg10 mi
8:52 AM65 °FScattered clouds.6 mph85%30.06 "Hg10 mi
7:52 AM62 °FBroken clouds.5 mph86%30.05 "Hg9 mi
6:52 AM58 °FPassing clouds.No wind90%30.05 "Hg8 mi
5:52 AM59 °FFog.3 mph90%30.03 "Hg6 mi
4:52 AM59 °FPassing clouds.3 mph90%30.03 "Hg10 mi
3:52 AM60 °FPassing clouds.No wind90%30.03 "Hg10 mi
2:52 AM59 °FPassing clouds.3 mph90%30.04 "Hg10 mi
1:52 AM61 °FPassing clouds.5 mph87%30.04 "Hg10 mi
12:52 AM62 °FPassing clouds.5 mph80%30.04 "Hg10 mi
11:52 PM
Jul 29
63 °FPassing clouds.7 mph78%30.04 "Hg10 mi
10:52 PM65 °FPassing clouds.6 mph73%30.04 "Hg10 mi
Weather by CustomWeather, © 2014

See weather overviewHow to use our weather pages